Regional Weather Roundup
Issued by NWS

Home | Current Version | Previous Version | Graphics & Text | Print | Product List | Glossary On
Versions: 1 2 3 4 5 6 7 8 9 10 11 12 13 14 15 16 17 18 19 20 21 22 23 24 25 26 27 28 29 30 31 32 33 34 35 36 37 38 39 40 41 42 43 44 45 46 47 48 49 50
000
ASUS43 KOAX 181610
RWRNE

WEATHER ROUNDUP FOR NEBRASKA
NATIONAL WEATHER SERVICE OMAHA NE
1000 AM CST THU DEC 18 2014

NOTES: SATELLITE DATA IS BEING USED TO AUGMENT CLOUD COVER ABOVE
       12000 FEET.
       "FAIR" INDICATES FEW OR NO CLOUDS BELOW 12,000 FEET WITH NO
       SIGNIFICANT WEATHER AND/OR OBSTRUCTIONS TO VISIBILITY.

  * THESE STATIONS DO NOT REPORT WEATHER SUCH AS RAIN...SNOW OR FOG.

NEZ001>004-019>022-054>056-181700-
NEBRASKA PANHANDLE

CITY           SKY/WX    TMP DP  RH WIND       PRES   REMARKS
SCOTTSBLUFF    CLOUDY     7   4  87 NW5       30.06S FOG     WCI  -2
ALLIANCE       MOSUNNY    6   3  87 SW5       30.03R WCI  -3
CHADRON        SUNNY     10   6  84 SW8       30.05S WCI  -2
KIMBALL        MOSUNNY   28  19  70 NW8       30.01S WCI  20
SIDNEY         MOSUNNY   21  17  84 W10       30.04R WCI  10
$$

NEZ057>060-069>072-079>082-181700-
SOUTHWEST NEBRASKA

CITY           SKY/WX    TMP DP  RH WIND       PRES   REMARKS
NORTH PLATTE   CLOUDY    26  23  88 SW7       30.11S WCI  18
IMPERIAL       CLOUDY    25  23  92 W7        30.10R FOG     WCI  17
LEXINGTON      CLOUDY    27  24  91 S5        30.15R WCI  21
MCCOOK         CLOUDY    24  22  91 SW5       30.14R WCI  18
OGALLALA       FOG       22  21  96 W7        30.09R VSB 3/4 WCI  14
$$

NEZ005>010-023>029-035>040-094-181700-
NORTH CENTRAL NEBRASKA

CITY           SKY/WX    TMP DP  RH WIND       PRES   REMARKS
VALENTINE      CLOUDY    26  22  84 SW5       30.08R WCI  20
AINSWORTH      CLOUDY    25  24  93 CALM      30.09S
BROKEN BOW     CLOUDY    25  24  96 S8        30.13R FOG     WCI  16
O`NEILL        CLOUDY    25  23  95 S5        30.16S WCI  19
ORD            CLOUDY    24  21  88 SE6       30.16R FOG     WCI  17
THEDFORD       CLOUDY    26  24  91 SW5       30.09R WCI  21
$$

NEZ041-046>049-061>064-073>077-083>087-181700-
SOUTH CENTRAL NEBRASKA

CITY           SKY/WX    TMP DP  RH WIND       PRES   REMARKS
GRAND ISLAND   CLOUDY    24  22  91 S5        30.20S WCI  18
AURORA         CLOUDY    26  24  91 S3        30.20S
HASTINGS       CLOUDY    25  22  88 S5        30.18R WCI  19
HEBRON         CLOUDY    27  24  87 SE3       30.22S
HOLDREGE       CLOUDY    26  24  91 S3        30.16R
KEARNEY *      CLOUDY    25  21  86 SE6       30.17S WCI  18
YORK           LGT SNOW  27 N/A N/A CALM      30.22R
$$

NEZ011>018-030>034-042>045-181700-
NORTHEAST NEBRASKA

CITY           SKY/WX    TMP DP  RH WIND       PRES   REMARKS
NORFOLK        CLOUDY    27  22  81 S7        30.21R WCI  19
ALBION         CLOUDY    24  21  87 S5        30.19S WCI  19
BLAIR          LGT SNOW  28  25  87 E6        30.23S WCI  22
COLUMBUS *     CLOUDY    25  19  80 SE6       30.23S WCI  18
FREMONT        CLOUDY    29  26  88 SE6       30.25R WCI  23
TEKAMAH        CLOUDY    28  23  81 SE7       30.26R WCI  21
WAYNE          CLOUDY    26  23  85 SE7       30.23S WCI  19
$$

NEZ050>053-065>068-078-088>093-181700-
SOUTHEAST NEBRASKA

CITY           SKY/WX    TMP DP  RH WIND       PRES   REMARKS
LINCOLN        CLOUDY    28  25  88 S6        30.26R FOG     WCI  22
OMAHA EPPLEY   LGT SNOW  27  24  89 SE6       30.27R FOG     WCI  20
BEATRICE       CLOUDY    28  26  90 CALM      30.24R
FALLS CITY     LGT SNOW  28  25  88 E5        30.26R FOG     WCI  23
NEBRASKA CITY  LGT SNOW  28  27  96 SE5       30.25R WCI  23
PLATTSMOUTH    CLOUDY    28  25  87 E5        30.24S WCI  23
$$

NEZ044-045-051>053-067-181700-
OMAHA AREA

CITY           SKY/WX    TMP DP  RH WIND       PRES   REMARKS
OMAHA EPPLEY   LGT SNOW  27  24  89 SE6       30.27R FOG     WCI  20
BLAIR          LGT SNOW  28  25  87 E6        30.23S WCI  22
FREMONT        CLOUDY    29  26  88 SE6       30.25R WCI  23
MILLARD        LGT SNOW  28  24  85 SE3       30.26R
OFFUTT AFB     LGT SNOW  28  24  87 E7        30.25S FOG     WCI  21
PLATTSMOUTH    CLOUDY    28  25  87 E5        30.24S WCI  23
WAHOO          CLOUDY    28  25  86 SE5       30.24S FOG     WCI  23
$$



USA.gov is the U.S. government's official web portal to all federal, state and local government web resources and services.